Salt Lake City, UT

2:27 PM MDT on September 20, 2017 (GMT -0600)
Salt Lake City International

Weather History for KSLC - March, 2013

Change the Weather History Date:

Saturday, March 30, 2013

  Actual Average Record
Temperature  
Mean Temperature 55 °F 47 °F  
Max Temperature 67 °F 57 °F 77 °F (1879)
Min Temperature 43 °F 36 °F 13 °F (1977)
Degree Days  
Heating Degree Days 10 18  
Month to date heating degree days 616 644  
Since 1 July heating degree days 4848 4900  
Cooling Degree Days 0 0  
Month to date cooling degree days 0 0  
Year to date cooling degree days 0 0  
Growing Degree Days 4 (Base 50)    
Moisture  
Dew Point 34 °F    
Average Humidity 46    
Maximum Humidity 65    
Minimum Humidity 26    
Precipitation  
Precipitation 0.00 in 0.06 in 1.17 in (1874)
Month to date precipitation 0.71 1.72  
Year to date precipitation 2.91 4.22  
Snow  
Snow 0.00 in 0.20 in 6.50 in (1905)
Month to date snowfall 2.7 6.3  
Since 1 July snowfall 69.8 51.7  
Snow Depth 0.00 in    
Sea Level Pressure  
Sea Level Pressure 30.09 in    
Wind  
Wind Speed 7 mph (NW)    
Max Wind Speed 14 mph    
Max Gust Speed 18 mph    
Visibility 10 miles    
Events      
T = Trace of Precipitation, MM = Missing Value Source: NWS Daily Summary

Daily Weather History Graph

Daily Weather History Graph

Search for Another Location

Airport or City:

Trip Planner

Search our weather history database for the weather conditions in past years. The results will help you decide how hot, cold, wet, or windy it might be!

Date:

Astronomy

Mar. 30, 2013 Rise Set
Actual Time 7:14 AM MDT 7:50 PM MDT
Civil Twilight 6:46 AM MDT 8:18 PM MDT
Nautical Twilight 6:14 AM MDT 8:51 PM MDT
Astronomical Twilight 5:40 AM MDT 9:24 PM MDT
Moon No Moon Rise 9:11 AM MDT (3/30)
Length of Visible Light 13h 31m
Length of Day
12h 36m
Waning Gibbous, 86% of the Moon is Illuminated
Mar 30
Waning Gibbous
Apr 2
Last Quarter
Apr 10
New
Apr 18
First Quarter
Apr 25
Full

Hourly Weather History & Observations

Time (MDT) Temp. Windchill Dew Point Humidity Pressure Visibility Wind Dir Wind Speed Gust Speed Precip Events Conditions
12:53 AM 48.9 °F - 30.9 °F 50% 30.09 in 10.0 mi SE 8.1 mph - N/A   Clear
1:53 AM 48.9 °F - 30.0 °F 48% 30.09 in 10.0 mi SE 8.1 mph - N/A   Clear
2:53 AM 46.9 °F - 30.9 °F 54% 30.09 in 10.0 mi SE 6.9 mph - N/A   Clear
3:53 AM 46.0 °F 41.9 °F 30.9 °F 56% 30.09 in 10.0 mi SE 8.1 mph - N/A   Partly Cloudy
4:53 AM 44.1 °F 39.5 °F 34.0 °F 68% 30.09 in 10.0 mi SE 8.1 mph - N/A   Partly Cloudy
5:53 AM 44.1 °F 39.5 °F 34.0 °F 68% 30.09 in 10.0 mi SE 8.1 mph - N/A   Partly Cloudy
6:53 AM 43.0 °F 38.8 °F 33.1 °F 68% 30.11 in 10.0 mi ESE 6.9 mph - N/A   Partly Cloudy
7:53 AM 46.9 °F - 33.1 °F 59% 30.12 in 10.0 mi Calm Calm - N/A   Partly Cloudy
8:53 AM 50.0 °F - 36.0 °F 59% 30.13 in 10.0 mi SE 4.6 mph - N/A   Partly Cloudy
9:53 AM 54.0 °F - 37.0 °F 53% 30.13 in 10.0 mi Calm Calm - N/A   Scattered Clouds
10:53 AM 59.0 °F - 37.0 °F 44% 30.13 in 10.0 mi NNW 5.8 mph - N/A   Partly Cloudy
11:53 AM 62.1 °F - 36.0 °F 38% 30.14 in 10.0 mi North 5.8 mph - N/A   Scattered Clouds
12:53 PM 64.0 °F - 35.1 °F 34% 30.12 in 10.0 mi NW 9.2 mph - N/A   Scattered Clouds
1:53 PM 64.9 °F - 35.1 °F 33% 30.11 in 10.0 mi NNW 10.4 mph - N/A   Partly Cloudy
2:53 PM 66.0 °F - 35.1 °F 32% 30.10 in 10.0 mi North 11.5 mph - N/A   Partly Cloudy
3:53 PM 66.0 °F - 33.1 °F 29% 30.09 in 10.0 mi NNW 10.4 mph - N/A   Partly Cloudy
4:53 PM 66.0 °F - 32.0 °F 28% 30.07 in 10.0 mi NW 5.8 mph - N/A   Partly Cloudy
5:53 PM 66.0 °F - 30.9 °F 27% 30.06 in 10.0 mi NW 8.1 mph - N/A   Partly Cloudy
6:53 PM 63.0 °F - 33.1 °F 33% 30.06 in 10.0 mi West 10.4 mph - N/A   Partly Cloudy
7:53 PM 57.9 °F - 33.1 °F 39% 30.06 in 10.0 mi West 8.1 mph - N/A   Clear
8:53 PM 57.0 °F - 34.0 °F 42% 30.05 in 10.0 mi West 4.6 mph - N/A   Clear
9:53 PM 55.0 °F - 36.0 °F 49% 30.06 in 10.0 mi Calm Calm - N/A   Clear
10:53 PM 52.0 °F - 35.1 °F 53% 30.06 in 10.0 mi Calm Calm - N/A   Clear
11:53 PM 50.0 °F - 33.1 °F 52% 30.06 in 10.0 mi South 5.8 mph - N/A   Clear